User: anonymous   Login
Location: Darlington Observatory
(36.4817°N, 105.8156°W)
Time: 14:09:50
(UTC-07:00)
Language:

NOSS 3-3 (A) - Orbit

View from above orbital plane
View from above orbital plane
View from above satellite
View from above satellite

Ground track
Ground track

The orbit data is extracted from the following two-line orbital elements,

1 28537U 05004A   15019.75119568 0.00000000  00000-0  00000-0 0    05
2 28537  63.4307 268.9373 0187000 359.5586   0.4414 13.40667238    08
Epoch (UTC): 19 January 2015 18:01:43
Eccentricity: 0.0187000
inclination: 63.4307°
perigee height: 967 km
apogee height: 1247 km
right ascension of ascending node: 268.9373°
argument of perigee: 359.5586°
revolutions per day: 13.40667238
mean anomaly at epoch: 0.4414°
orbit number at epoch: 0

The dashed part of the orbit path shows where the satellite is in the earth's shadow,  

DLR